EW0724 Weather Reports


time (UTC)temp
C
wind
direction
speed
KPH
gust
KPH
rain 1hr
cm
rain 24hr
cm
rain mn
cm
humidity
%
barometer
mb
20260503190010 10 207 0.0 6.4 0.08 0.08 0.08 41 1013.9
20260503184515 10 231 6.4 27.4 0.03 0.03 0.03 55 1014.3
20260503183014 11 227 4.8 24.1 0.00 0.00 0.00 61 1014.5
20260503181509 12 226 11.3 25.7 0.00 0.00 0.00 60 1014.3
20260503180010 14 127 20.9 41.8 0.00 0.00 0.00 50 1013.7
20260503174507 15 217 12.9 25.7 0.00 0.00 0.00 49 1013.7
20260503173005 15 183 11.3 29.0 0.00 0.00 0.00 47 1013.9
20260503171504 15 191 12.9 24.1 0.00 0.00 0.00 48 1014.0
20260503081508 4 183 0.0 0.0 0.00 0.00 0.00 55 1016.0
20260503071505 4 183 0.0 0.0 0.00 0.00 0.00 52 1016.2
20260503054521 5 183 0.0 0.0 0.00 0.00 0.00 33 1016.8
20260503053006 5 183 0.0 0.0 0.00 0.00 0.00 35 1016.8
20260503051504 5 183 0.0 0.0 0.00 0.00 0.00 38 1016.9
20260503050002 5 183 0.0 0.0 0.00 0.00 0.00 42 1016.9
20260503044502 5 183 0.0 0.0 0.00 0.00 0.00 43 1016.9
20260503043105 5 183 0.0 0.0 0.00 0.00 0.00 48 1016.9
20260503041600 5 183 0.0 0.0 0.00 0.00 0.00 50 1016.9
20260503040121 5 183 0.0 0.0 0.00 0.00 0.00 54 1017.0
20260503034600 6 183 0.0 0.0 0.00 0.00 0.00 57 1017.0
20260503033100 6 184 0.0 0.0 0.00 0.00 0.00 59 1016.9
20260503031548 6 184 0.0 0.0 0.00 0.00 0.00 62 1017.0
20260503030047 6 185 0.0 0.0 0.00 0.00 0.00 64 1017.1
20260503024529 6 185 0.0 0.0 0.00 0.00 0.00 65 1017.0
20260503023027 6 185 0.0 0.0 0.00 0.00 0.00 65 1017.1
20260503021528 7 185 0.0 0.0 0.00 0.00 0.00 64 1017.1
20260503020028 7 185 0.0 0.0 0.00 0.00 0.00 62 1017.0
20260503014527 8 185 0.0 0.0 0.00 0.00 0.00 60 1016.8
20260503013031 8 185 0.0 0.0 0.00 0.00 0.00 58 1016.7
20260503011526 9 185 0.0 0.0 0.00 0.00 0.00 55 1016.7
20260503010027 10 185 0.0 0.0 0.00 0.00 0.00 45 1016.7
20260503004510 10 185 0.0 0.0 0.00 0.00 0.00 41 1016.7
20260503003007 11 185 0.0 3.2 0.00 0.00 0.00 39 1016.7
20260503001601 11 192 0.0 4.8 0.00 0.00 0.00 39 1016.6
20260503000048 11 315 0.0 4.8 0.00 0.00 0.00 38 1016.6
20260502234541 11 269 0.0 3.2 0.00 0.00 0.00 37 1016.6
20260502233037 12 331 0.0 4.8 0.00 0.00 0.00 35 1016.6
20260502231534 12 28 1.6 6.4 0.00 0.00 0.00 36 1016.7
20260502230036 12 204 4.8 11.3 0.00 0.00 0.00 36 1016.7
20260502224534 11 239 1.6 11.3 0.00 0.00 0.00 37 1016.7
20260502223033 12 163 1.6 11.3 0.00 0.00 0.00 35 1016.8
20260502221537 12 261 1.6 9.7 0.00 0.00 0.00 36 1016.7
20260502220030 12 305 4.8 12.9 0.00 0.00 0.00 34 1016.8
20260502214517 12 311 1.6 12.9 0.00 0.00 0.00 33 1016.8
20260502213017 12 285 3.2 11.3 0.00 0.00 0.00 35 1016.7
20260502211516 11 309 3.2 11.3 0.00 0.00 0.00 37 1016.7
20260502210014 11 313 1.6 11.3 0.00 0.00 0.00 35 1016.8
20260502204514 11 20 4.8 9.7 0.00 0.00 0.00 36 1016.9
20260502203011 11 293 4.8 9.7 0.00 0.00 0.00 37 1017.1
20260502201511 11 30 3.2 9.7 0.00 0.00 0.00 36 1017.2
20260502200010 12 176 4.8 16.1 0.00 0.00 0.00 38 1017.2
20260502194506 12 24 1.6 9.7 0.00 0.00 0.00 39 1017.5
20260502193007 11 53 3.2 11.3 0.00 0.00 0.00 38 1017.7
20260502191559 11 234 4.8 12.9 0.00 0.00 0.00 40 1017.7